QPF
0.01 0.01 0.01 0.00 0.00 0.00 0.00 0.01 0.01 0.01 0.02 0.02 0.01 0.01 0.01 0.01 0.01 0.02 0.02 0.01 0.01 0.01 0.01 0.02 0.02 0.03 0.04 0.04 0.04 0.04 0.03 0.02 0.01 0.01 0.01 0.01 0.01 0.02 0.02 0.02 0.01 0.02 0.02 0.01
0.01 0.00 0.00 0.00 0.00 0.00 0.00 0.01 0.01 0.01 0.01 0.01 0.01 0.01 0.01 0.01 0.01 0.01 0.01 0.01 0.01 0.01 0.01 0.01 0.01 0.02 0.02 0.02 0.02 0.03 0.03 0.02 0.01 0.01 0.01 0.01 0.01 0.01 0.01 0.01 0.01 0.02 0.02 0.01
0.01 0.01 0.00 0.00 0.00 0.00 0.00 0.01 0.01 0.01 0.01 0.01 0.01 0.01 0.01 0.01 0.01 0.01 0.01 0.00 0.01 0.01 0.01 0.00 0.00 0.01 0.01 0.01 0.01 0.02 0.03 0.03 0.02 0.02 0.01 0.01 0.00 0.01 0.02 0.03 0.02 0.02 0.02 0.02
0.00 0.00 0.00 0.01 0.01 0.01 0.01 0.01 0.01 0.01 0.01 0.01 0.01 0.01 0.01 0.00 0.00 0.00 0.00 0.00 0.00 0.00 0.01 0.01 0.00 0.01 0.01 0.01 0.01 0.01 0.03 0.04 0.04 0.03 0.02 0.01 0.01 0.01 0.01 0.02 0.02 0.02 0.02 0.02
0.00 0.00 0.00 0.00 0.01 0.01 0.01 0.01 0.01 0.02 0.02 0.01 0.01 0.01 0.00 0.00 0.00 0.01 0.01 0.01 0.00 0.01 0.01 0.01 0.00 0.01 0.01 0.01 0.02 0.02 0.02 0.03 0.03 0.03 0.02 0.02 0.02 0.01 0.00 0.01 0.01 0.02 0.02 0.02
0.00 0.00 0.00 0.00 0.00 0.01 0.01 0.01 0.01 0.01 0.01 0.01 0.01 0.01 0.01 0.01 0.01 0.01 0.01 0.01 0.01 0.01 0.01 0.01 0.01 0.01 0.02 0.02 0.02 0.02 0.03 0.03 0.03 0.03 0.02 0.03 0.02 0.01 0.01 0.01 0.01 0.01 0.01 0.01
0.00 0.00 0.00 0.00 0.00 0.00 0.01 0.01 0.01 0.00 0.00 0.00 0.01 0.01 0.01 0.01 0.01 0.01 0.01 0.01 0.01 0.01 0.01 0.01 0.01 0.01 0.01 0.01 0.02 0.02 0.03 0.03 0.02 0.02 0.03 0.02 0.01 0.01 0.01 0.01 0.01 0.01 0.01 0.01
0.00 0.00 0.01 0.01 0.00 0.00 0.00 0.01 0.01 0.01 0.00 0.00 0.01 0.01 0.02 0.02 0.01 0.01 0.02 0.01 0.01 0.01 0.01 0.00 0.00 0.00 0.01 0.01 0.01 0.01 0.02 0.02 0.02 0.02 0.02 0.02 0.02 0.02 0.01 0.01 0.01 0.01 0.01 0.01
0.00 0.00 0.01 0.01 0.00 0.00 0.00 0.01 0.01 0.01 0.01 0.00 0.01 0.03 0.04 0.03 0.02 0.03 0.03 0.01 0.01 0.01 0.01 0.02 0.02 0.02 0.02 0.02 0.01 0.02 0.02 0.03 0.02 0.02 0.01 0.02 0.02 0.02 0.01 0.01 0.01 0.01 0.01 0.00
0.01 0.01 0.01 0.01 0.01 0.01 0.01 0.01 0.01 0.01 0.01 0.01 0.01 0.03 0.07 0.04 0.02 0.03 0.05 0.02 0.01 0.02 0.03 0.03 0.04 0.05 0.04 0.03 0.03 0.04 0.04 0.04 0.04 0.02 0.01 0.02 0.02 0.02 0.02 0.02 0.01 0.02 0.01 0.01
0.01 0.01 0.01 0.01 0.01 0.01 0.01 0.01 0.01 0.01 0.01 0.01 0.01 0.03 0.07 0.04 0.02 0.02 0.05 0.06 0.04 0.03 0.03 0.04 0.04 0.06 0.07 0.06 0.05 0.05 0.05 0.05 0.04 0.03 0.03 0.02 0.02 0.02 0.02 0.02 0.02 0.01 0.01 0.01
0.00 0.01 0.01 0.00 0.01 0.01 0.01 0.03 0.03 0.02 0.01 0.01 0.01 0.04 0.05 0.03 0.01 0.01 0.02 0.05 0.07 0.04 0.03 0.02 0.04 0.05 0.07 0.06 0.05 0.03 0.03 0.04 0.04 0.04 0.04 0.04 0.03 0.03 0.02 0.01 0.01 0.01 0.01 0.01
0.00 0.00 0.01 0.01 0.01 0.01 0.02 0.04 0.03 0.02 0.01 0.01 0.01 0.04 0.04 0.02 0.01 0.01 0.00 0.01 0.02 0.02 0.01 0.01 0.02 0.04 0.05 0.05 0.04 0.04 0.04 0.04 0.04 0.03 0.03 0.03 0.03 0.02 0.02 0.02 0.02 0.01 0.01 0.01
0.00 0.00 0.01 0.01 0.01 0.01 0.02 0.04 0.03 0.01 0.01 0.01 0.02 0.03 0.02 0.02 0.02 0.01 0.00 0.01 0.01 0.01 0.01 0.01 0.01 0.01 0.01 0.02 0.03 0.03 0.03 0.03 0.03 0.03 0.03 0.03 0.03 0.03 0.02 0.02 0.02 0.02 0.02 0.02
0.00 0.00 0.01 0.01 0.01 0.01 0.03 0.02 0.01 0.01 0.01 0.01 0.03 0.02 0.02 0.02 0.01 0.01 0.01 0.01 0.01 0.01 0.01 0.01 0.01 0.01 0.01 0.01 0.01 0.02 0.02 0.02 0.02 0.03 0.04 0.04 0.04 0.03 0.03 0.02 0.02 0.02 0.03 0.03
0.01 0.01 0.02 0.03 0.02 0.02 0.01 0.01 0.01 0.01 0.01 0.01 0.02 0.02 0.01 0.01 0.01 0.01 0.01 0.02 0.02 0.01 0.01 0.01 0.01 0.01 0.01 0.01 0.01 0.01 0.02 0.02 0.02 0.02 0.02 0.02 0.02 0.02 0.02 0.02 0.02 0.03 0.03 0.03
0.02 0.02 0.03 0.06 0.07 0.02 0.01 0.01 0.01 0.01 0.01 0.02 0.02 0.02 0.01 0.01 0.01 0.01 0.01 0.01 0.01 0.01 0.01 0.01 0.01 0.01 0.01 0.01 0.01 0.01 0.01 0.01 0.01 0.01 0.02 0.02 0.03 0.03 0.02 0.03 0.03 0.03 0.03 0.02
0.01 0.02 0.03 0.04 0.05 0.03 0.02 0.01 0.01 0.01 0.01 0.02 0.02 0.02 0.01 0.01 0.01 0.01 0.01 0.01 0.01 0.00 0.00 0.00 0.01 0.01 0.01 0.01 0.01 0.02 0.02 0.02 0.01 0.01 0.01 0.01 0.02 0.02 0.03 0.02 0.02 0.02 0.02 0.01
0.02 0.02 0.03 0.03 0.03 0.03 0.02 0.01 0.01 0.01 0.02 0.02 0.02 0.02 0.02 0.02 0.02 0.01 0.01 0.01 0.01 0.01 0.00 0.00 0.00 0.00 0.01 0.01 0.01 0.02 0.02 0.02 0.02 0.02 0.02 0.02 0.02 0.02 0.02 0.02 0.02 0.02 0.02 0.02
0.02 0.01 0.01 0.01 0.02 0.04 0.03 0.01 0.01 0.01 0.03 0.02 0.01 0.01 0.01 0.01 0.02 0.03 0.02 0.01 0.00 0.00 0.00 0.00 0.00 0.00 0.00 0.00 0.01 0.01 0.02 0.02 0.02 0.02 0.02 0.01 0.02 0.01 0.01 0.02 0.02 0.02 0.02 0.02
0.01 0.00 0.00 0.00 0.01 0.02 0.02 0.02 0.01 0.02 0.02 0.01 0.01 0.01 0.01 0.01 0.01 0.01 0.01 0.01 0.00 0.00 0.00 0.00 0.00 0.00 0.00 0.00 0.00 0.01 0.01 0.01 0.02 0.03 0.02 0.02 0.02 0.02 0.02 0.01 0.02 0.01 0.02 0.02
0.01 0.01 0.01 0.01 0.01 0.01 0.01 0.01 0.02 0.02 0.01 0.01 0.01 0.01 0.01 0.01 0.01 0.01 0.01 0.00 0.00 0.00 0.00 0.01 0.00 0.00 0.00 0.00 0.00 0.00 0.01 0.01 0.01 0.02 0.02 0.02 0.02 0.01 0.01 0.01 0.01 0.01 0.01 0.02
0.01 0.01 0.01 0.01 0.01 0.02 0.01 0.01 0.01 0.01 0.01 0.01 0.01 0.01 0.01 0.01 0.01 0.01 0.01 0.01 0.01 0.01 0.01 0.00 0.01 0.00 0.00 0.00 0.00 0.00 0.01 0.01 0.02 0.02 0.02 0.02 0.02 0.02 0.01 0.01 0.01 0.01 0.02 0.02
0.00 0.01 0.01 0.01 0.01 0.01 0.01 0.01 0.00 0.00 0.00 0.01 0.01 0.01 0.01 0.01 0.02 0.02 0.02 0.02 0.02 0.02 0.01 0.00 0.00 0.00 0.00 0.01 0.01 0.00 0.00 0.00 0.01 0.03 0.04 0.03 0.03 0.02 0.02 0.02 0.02 0.02 0.02 0.03
0.00 0.00 0.01 0.01 0.01 0.01 0.01 0.00 0.00 0.00 0.00 0.00 0.01 0.01 0.01 0.02 0.02 0.02 0.02 0.02 0.01 0.01 0.01 0.01 0.01 0.01 0.01 0.01 0.01 0.00 0.00 0.00 0.00 0.01 0.01 0.02 0.03 0.03 0.03 0.02 0.02 0.02 0.03 0.03
0.00 0.00 0.00 0.01 0.01 0.01 0.01 0.01 0.00 0.00 0.00 0.00 0.01 0.01 0.01 0.02 0.02 0.01 0.02 0.03 0.04 0.03 0.03 0.02 0.01 0.01 0.02 0.01 0.02 0.01 0.00 0.00 0.00 0.01 0.01 0.01 0.01 0.02 0.03 0.02 0.02 0.02 0.02 0.03
MSLP
1013.57 1014.25 1014.76 1015.09 1015.25 1015.28 1015.20 1015.05 1014.82 1014.50 1014.09 1013.56 1012.93 1012.21 1011.44 1010.68 1009.99 1009.44 1009.04 1008.83 1008.77 1008.85 1009.00 1009.20 1009.40 1009.61 1009.82 1010.05 1010.33 1010.67 1011.09 1011.55 1012.05 1012.52 1012.94 1013.28 1013.53 1013.68 1013.78 1013.85 1013.94 1014.09 1014.30 1014.60
1013.90 1014.41 1014.75 1014.93 1015.00 1015.00 1014.96 1014.91 1014.82 1014.66 1014.38 1013.95 1013.34 1012.58 1011.70 1010.79 1009.93 1009.20 1008.65 1008.32 1008.19 1008.24 1008.39 1008.61 1008.84 1009.06 1009.28 1009.52 1009.80 1010.15 1010.58 1011.09 1011.63 1012.18 1012.67 1013.08 1013.38 1013.58 1013.69 1013.77 1013.86 1014.01 1014.23 1014.53
1013.98 1014.29 1014.43 1014.46 1014.44 1014.44 1014.49 1014.58 1014.69 1014.73 1014.63 1014.32 1013.77 1012.97 1012.00 1010.93 1009.88 1008.95 1008.23 1007.76 1007.53 1007.52 1007.66 1007.87 1008.12 1008.36 1008.58 1008.83 1009.11 1009.48 1009.94 1010.50 1011.11 1011.73 1012.31 1012.80 1013.18 1013.43 1013.58 1013.68 1013.77 1013.92 1014.13 1014.44
1013.87 1013.95 1013.89 1013.77 1013.69 1013.72 1013.88 1014.16 1014.49 1014.76 1014.87 1014.70 1014.21 1013.40 1012.33 1011.10 1009.86 1008.74 1007.83 1007.20 1006.86 1006.77 1006.86 1007.06 1007.30 1007.54 1007.77 1008.01 1008.30 1008.68 1009.17 1009.77 1010.44 1011.15 1011.82 1012.41 1012.87 1013.19 1013.40 1013.53 1013.64 1013.79 1014.00 1014.30
1013.70 1013.54 1013.28 1013.04 1012.92 1013.00 1013.29 1013.77 1014.33 1014.84 1015.13 1015.10 1014.68 1013.86 1012.70 1011.33 1009.91 1008.60 1007.52 1006.74 1006.27 1006.09 1006.13 1006.29 1006.51 1006.72 1006.93 1007.15 1007.42 1007.79 1008.28 1008.91 1009.64 1010.42 1011.19 1011.87 1012.43 1012.84 1013.11 1013.29 1013.43 1013.58 1013.79 1014.08
1013.60 1013.22 1012.79 1012.45 1012.31 1012.45 1012.87 1013.54 1014.30 1015.00 1015.46 1015.55 1015.17 1014.33 1013.10 1011.61 1010.05 1008.58 1007.35 1006.44 1005.87 1005.60 1005.57 1005.68 1005.85 1006.01 1006.17 1006.33 1006.55 1006.88 1007.36 1007.98 1008.74 1009.57 1010.41 1011.18 1011.84 1012.34 1012.69 1012.93 1013.11 1013.28 1013.49 1013.77
1013.68 1013.13 1012.57 1012.15 1012.01 1012.20 1012.73 1013.53 1014.45 1015.29 1015.85 1016.00 1015.65 1014.78 1013.49 1011.91 1010.24 1008.67 1007.34 1006.34 1005.70 1005.37 1005.28 1005.33 1005.43 1005.52 1005.59 1005.67 1005.81 1006.05 1006.46 1007.05 1007.80 1008.64 1009.53 1010.37 1011.10 1011.69 1012.13 1012.44 1012.67 1012.87 1013.10 1013.38
1014.01 1013.33 1012.69 1012.23 1012.08 1012.31 1012.91 1013.79 1014.77 1015.66 1016.26 1016.41 1016.04 1015.14 1013.80 1012.17 1010.45 1008.84 1007.47 1006.44 1005.77 1005.41 1005.28 1005.28 1005.31 1005.31 1005.28 1005.25 1005.26 1005.39 1005.70 1006.20 1006.89 1007.72 1008.61 1009.48 1010.27 1010.93 1011.44 1011.81 1012.10 1012.35 1012.61 1012.91
1014.56 1013.82 1013.14 1012.66 1012.52 1012.76 1013.36 1014.24 1015.20 1016.05 1016.60 1016.70 1016.27 1015.32 1013.95 1012.31 1010.61 1009.01 1007.68 1006.69 1006.04 1005.69 1005.55 1005.51 1005.48 1005.40 1005.26 1005.10 1004.98 1004.97 1005.14 1005.53 1006.12 1006.87 1007.72 1008.59 1009.40 1010.10 1010.66 1011.10 1011.44 1011.74 1012.03 1012.36
1015.24 1014.50 1013.82 1013.35 1013.21 1013.43 1013.99 1014.78 1015.64 1016.37 1016.80 1016.78 1016.27 1015.27 1013.88 1012.27 1010.63 1009.12 1007.89 1006.98 1006.41 1006.12 1006.00 1005.95 1005.88 1005.73 1005.49 1005.21 1004.95 1004.80 1004.83 1005.07 1005.54 1006.19 1006.96 1007.78 1008.56 1009.26 1009.85 1010.32 1010.71 1011.05 1011.38 1011.75
1015.93 1015.23 1014.59 1014.15 1014.00 1014.17 1014.64 1015.29 1015.98 1016.53 1016.78 1016.61 1015.98 1014.94 1013.56 1012.02 1010.48 1009.11 1008.02 1007.25 1006.79 1006.58 1006.52 1006.49 1006.40 1006.20 1005.90 1005.53 1005.16 1004.88 1004.77 1004.88 1005.20 1005.72 1006.38 1007.10 1007.82 1008.48 1009.05 1009.53 1009.94 1010.31 1010.67 1011.07
1016.50 1015.88 1015.31 1014.91 1014.75 1014.86 1015.20 1015.68 1016.15 1016.48 1016.52 1016.19 1015.47 1014.38 1013.04 1011.59 1010.19 1008.98 1008.05 1007.43 1007.11 1006.99 1006.99 1007.00 1006.92 1006.71 1006.38 1005.96 1005.53 1005.16 1004.94 1004.92 1005.11 1005.48 1006.00 1006.60 1007.21 1007.79 1008.31 1008.76 1009.15 1009.53 1009.91 1010.33
1016.89 1016.36 1015.87 1015.51 1015.34 1015.38 1015.59 1015.88 1016.15 1016.25 1016.10 1015.62 1014.81 1013.71 1012.42 1011.08 1009.84 1008.79 1008.02 1007.54 1007.33 1007.30 1007.36 1007.41 1007.35 1007.16 1006.84 1006.41 1005.96 1005.55 1005.27 1005.15 1005.22 1005.45 1005.82 1006.27 1006.75 1007.21 1007.63 1008.02 1008.38 1008.74 1009.12 1009.55
1017.12 1016.68 1016.26 1015.94 1015.76 1015.73 1015.81 1015.93 1016.00 1015.92 1015.60 1015.01 1014.14 1013.06 1011.85 1010.63 1009.53 1008.63 1007.99 1007.62 1007.49 1007.51 1007.61 1007.68 1007.65 1007.49 1007.20 1006.81 1006.38 1005.98 1005.68 1005.50 1005.47 1005.59 1005.81 1006.09 1006.41 1006.73 1007.03 1007.32 1007.62 1007.93 1008.30 1008.72
1017.24 1016.88 1016.52 1016.23 1016.04 1015.94 1015.91 1015.90 1015.81 1015.58 1015.15 1014.50 1013.62 1012.58 1011.47 1010.37 1009.39 1008.60 1008.06 1007.74 1007.64 1007.67 1007.75 1007.82 1007.81 1007.68 1007.44 1007.12 1006.75 1006.40 1006.10 1005.90 1005.81 1005.81 1005.89 1006.02 1006.17 1006.33 1006.49 1006.67 1006.87 1007.13 1007.46 1007.87
1017.39 1017.06 1016.74 1016.46 1016.25 1016.09 1015.98 1015.86 1015.66 1015.34 1014.86 1014.19 1013.35 1012.39 1011.37 1010.39 1009.51 1008.80 1008.29 1007.98 1007.84 1007.82 1007.86 1007.89 1007.86 1007.75 1007.57 1007.31 1007.03 1006.74 1006.49 1006.30 1006.16 1006.07 1006.02 1005.99 1005.98 1005.97 1005.99 1006.04 1006.15 1006.34 1006.63 1007.00
1017.64 1017.32 1017.01 1016.72 1016.47 1016.27 1016.08 1015.89 1015.63 1015.26 1014.77 1014.13 1013.36 1012.50 1011.59 1010.71 1009.91 1009.24 1008.73 1008.37 1008.15 1008.03 1007.97 1007.93 1007.86 1007.76 1007.62 1007.43 1007.23 1007.02 1006.82 1006.64 1006.47 1006.31 1006.14 1005.98 1005.81 1005.65 1005.52 1005.44 1005.46 1005.57 1005.80 1006.14
1018.07 1017.72 1017.38 1017.06 1016.76 1016.50 1016.25 1016.00 1015.70 1015.33 1014.86 1014.28 1013.60 1012.85 1012.05 1011.26 1010.52 1009.86 1009.31 1008.88 1008.55 1008.31 1008.13 1008.00 1007.88 1007.76 1007.64 1007.52 1007.38 1007.24 1007.09 1006.92 1006.73 1006.50 1006.24 1005.94 1005.63 1005.33 1005.07 1004.89 1004.80 1004.84 1005.01 1005.31
1018.65 1018.26 1017.86 1017.47 1017.11 1016.78 1016.47 1016.17 1015.84 1015.47 1015.03 1014.52 1013.93 1013.28 1012.58 1011.87 1011.18 1010.53 1009.94 1009.43 1008.99 1008.63 1008.35 1008.12 1007.94 1007.80 1007.70 1007.61 1007.52 1007.43 1007.32 1007.16 1006.94 1006.65 1006.30 1005.90 1005.47 1005.05 1004.67 1004.38 1004.21 1004.17 1004.28 1004.52
1019.31 1018.85 1018.38 1017.91 1017.47 1017.06 1016.67 1016.30 1015.94 1015.56 1015.14 1014.68 1014.17 1013.60 1013.00 1012.36 1011.72 1011.08 1010.47 1009.91 1009.40 1008.95 1008.58 1008.29 1008.07 1007.91 1007.81 1007.75 1007.70 1007.64 1007.54 1007.37 1007.13 1006.79 1006.36 1005.87 1005.34 1004.82 1004.35 1003.97 1003.71 1003.60 1003.64 1003.82
1019.94 1019.41 1018.85 1018.30 1017.75 1017.24 1016.76 1016.31 1015.88 1015.47 1015.05 1014.61 1014.14 1013.64 1013.11 1012.55 1011.96 1011.36 1010.77 1010.20 1009.67 1009.20 1008.79 1008.48 1008.24 1008.09 1008.00 1007.96 1007.94 1007.89 1007.79 1007.61 1007.32 1006.93 1006.44 1005.88 1005.27 1004.68 1004.13 1003.67 1003.35 1003.16 1003.12 1003.22
1020.42 1019.82 1019.19 1018.54 1017.90 1017.27 1016.68 1016.13 1015.61 1015.12 1014.66 1014.21 1013.76 1013.30 1012.83 1012.33 1011.82 1011.29 1010.76 1010.24 1009.75 1009.32 1008.95 1008.66 1008.46 1008.33 1008.27 1008.25 1008.24 1008.19 1008.08 1007.88 1007.56 1007.13 1006.59 1005.97 1005.31 1004.66 1004.06 1003.55 1003.15 1002.89 1002.77 1002.77
1020.68 1020.03 1019.33 1018.60 1017.86 1017.12 1016.41 1015.74 1015.10 1014.52 1013.98 1013.48 1013.02 1012.57 1012.14 1011.71 1011.29 1010.86 1010.43 1010.02 1009.64 1009.30 1009.02 1008.82 1008.68 1008.61 1008.59 1008.60 1008.59 1008.55 1008.42 1008.19 1007.85 1007.38 1006.81 1006.17 1005.48 1004.80 1004.17 1003.61 1003.16 1002.83 1002.62 1002.52
1020.69 1020.01 1019.27 1018.48 1017.66 1016.82 1015.99 1015.19 1014.43 1013.72 1013.08 1012.51 1012.00 1011.55 1011.15 1010.79 1010.46 1010.15 1009.86 1009.60 1009.37 1009.17 1009.03 1008.94 1008.90 1008.91 1008.94 1008.98 1008.98 1008.93 1008.79 1008.54 1008.18 1007.70 1007.13 1006.48 1005.80 1005.12 1004.47 1003.89 1003.40 1003.01 1002.71 1002.50
1020.49 1019.82 1019.06 1018.23 1017.35 1016.43 1015.50 1014.58 1013.69 1012.86 1012.12 1011.46 1010.89 1010.42 1010.04 1009.74 1009.51 1009.33 1009.19 1009.10 1009.03 1009.01 1009.01 1009.05 1009.12 1009.21 1009.29 1009.35 1009.36 1009.31 1009.16 1008.91 1008.54 1008.07 1007.52 1006.90 1006.25 1005.59 1004.97 1004.39 1003.87 1003.43 1003.06 1002.74
1020.16 1019.51 1018.77 1017.94 1017.03 1016.06 1015.05 1014.03 1013.04 1012.10 1011.25 1010.51 1009.89 1009.40 1009.04 1008.79 1008.65 1008.59 1008.60 1008.66 1008.76 1008.89 1009.03 1009.19 1009.35 1009.49 1009.61 1009.69 1009.71 1009.65 1009.50 1009.25 1008.91 1008.47 1007.97 1007.40 1006.81 1006.22 1005.64 1005.08 1004.57 1004.10 1003.66 1003.27
Thickness
5723 5709 5700 5703 5706 5706 5701 5694 5691 5698 5710 5704 5698 5700 5707 5710 5708 5707 5706 5707 5708 5711 5715 5715 5714 5713 5712 5710 5709 5707 5705 5703 5701 5699 5696 5694 5691 5691 5690 5689 5688 5687 5686 5685
5706 5701 5712 5715 5712 5706 5700 5692 5692 5699 5709 5703 5697 5698 5706 5709 5710 5711 5710 5709 5709 5709 5710 5711 5711 5710 5709 5707 5706 5704 5703 5701 5699 5697 5695 5692 5689 5687 5686 5685 5684 5683 5681 5680
5702 5709 5719 5713 5706 5700 5697 5692 5694 5694 5701 5701 5696 5693 5700 5708 5711 5712 5712 5712 5711 5710 5709 5708 5707 5707 5706 5705 5704 5703 5701 5699 5697 5695 5691 5688 5685 5683 5681 5680 5679 5678 5677 5675
5704 5714 5714 5708 5704 5701 5692 5705 5702 5698 5688 5680 5688 5672 5693 5700 5703 5708 5709 5709 5709 5710 5710 5708 5707 5705 5704 5704 5703 5701 5699 5696 5694 5692 5688 5685 5681 5677 5676 5675 5675 5674 5673 5671
5702 5710 5708 5703 5707 5707 5702 5709 5703 5695 5686 5677 5680 5672 5683 5694 5696 5704 5708 5709 5710 5710 5709 5707 5706 5705 5703 5702 5700 5698 5696 5693 5691 5689 5685 5682 5678 5675 5673 5672 5670 5669 5668 5666
5706 5714 5713 5710 5714 5712 5708 5698 5690 5680 5674 5664 5674 5668 5675 5687 5698 5705 5709 5710 5709 5709 5708 5707 5705 5703 5700 5699 5697 5694 5692 5689 5687 5685 5682 5679 5675 5672 5669 5667 5665 5663 5662 5661
5693 5703 5712 5715 5705 5704 5698 5679 5661 5658 5651 5656 5674 5670 5677 5699 5704 5706 5708 5709 5709 5707 5706 5704 5701 5699 5697 5695 5693 5691 5688 5685 5683 5681 5678 5676 5673 5669 5666 5664 5661 5659 5657 5656
5675 5678 5700 5707 5702 5692 5689 5680 5658 5649 5646 5654 5669 5666 5685 5703 5706 5708 5708 5708 5706 5704 5703 5701 5700 5697 5695 5693 5690 5687 5685 5682 5680 5678 5675 5672 5669 5666 5663 5661 5659 5656 5654 5653
5670 5675 5699 5706 5707 5698 5684 5676 5678 5660 5656 5651 5658 5671 5687 5702 5702 5703 5702 5701 5700 5699 5699 5698 5697 5695 5693 5690 5688 5686 5683 5679 5677 5675 5672 5669 5666 5662 5660 5657 5655 5653 5652 5651
5680 5672 5688 5698 5701 5696 5692 5679 5664 5656 5646 5641 5654 5662 5670 5687 5692 5695 5694 5693 5694 5694 5694 5693 5692 5691 5689 5688 5686 5683 5680 5677 5674 5672 5669 5666 5662 5659 5656 5653 5651 5649 5648 5647
5680 5669 5675 5684 5684 5681 5678 5673 5664 5653 5650 5641 5640 5656 5683 5684 5689 5688 5689 5690 5690 5690 5689 5688 5687 5686 5685 5683 5681 5679 5676 5673 5670 5668 5665 5662 5659 5656 5653 5650 5648 5646 5644 5643
5674 5663 5658 5672 5687 5691 5684 5676 5664 5652 5647 5643 5640 5653 5687 5685 5687 5687 5685 5685 5687 5686 5685 5683 5682 5680 5678 5676 5675 5673 5671 5668 5665 5663 5660 5657 5655 5652 5649 5646 5645 5643 5641 5639
5670 5658 5648 5655 5667 5677 5677 5675 5669 5659 5647 5637 5637 5655 5682 5681 5683 5682 5682 5681 5681 5680 5679 5677 5675 5673 5671 5669 5668 5666 5664 5663 5661 5658 5654 5652 5650 5647 5645 5643 5641 5639 5637 5635
5671 5654 5649 5647 5654 5664 5666 5669 5666 5657 5644 5640 5645 5657 5671 5674 5675 5676 5676 5675 5675 5674 5672 5671 5669 5667 5665 5663 5662 5660 5658 5657 5655 5652 5649 5647 5645 5643 5641 5639 5636 5635 5633 5631
5663 5651 5654 5658 5664 5665 5664 5665 5663 5658 5656 5649 5653 5656 5666 5669 5671 5671 5671 5670 5669 5668 5666 5665 5663 5661 5660 5658 5656 5654 5653 5651 5650 5647 5644 5642 5640 5638 5636 5634 5631 5630 5628 5626
5652 5649 5651 5653 5659 5659 5658 5662 5661 5660 5659 5655 5656 5657 5668 5668 5666 5665 5665 5664 5662 5662 5661 5660 5658 5656 5654 5652 5650 5649 5647 5646 5644 5641 5639 5637 5634 5632 5630 5628 5626 5623 5621 5620
5641 5642 5640 5638 5648 5651 5645 5657 5659 5659 5661 5658 5654 5660 5664 5661 5661 5660 5660 5659 5658 5658 5657 5655 5653 5650 5649 5647 5645 5643 5642 5640 5637 5635 5633 5631 5628 5625 5624 5622 5619 5617 5615 5613
5636 5633 5629 5629 5635 5630 5649 5663 5663 5660 5661 5660 5660 5660 5659 5659 5659 5658 5657 5654 5653 5653 5652 5650 5647 5645 5643 5641 5640 5638 5635 5633 5630 5628 5626 5624 5621 5619 5616 5614 5612 5610 5608 5606
5637 5631 5622 5618 5620 5628 5646 5655 5654 5651 5651 5655 5653 5653 5653 5652 5651 5650 5653 5652 5650 5649 5647 5644 5642 5639 5637 5634 5632 5629 5627 5625 5622 5620 5618 5616 5614 5611 5609 5606 5605 5603 5601 5599
5630 5628 5619 5613 5616 5618 5640 5653 5657 5652 5642 5652 5649 5645 5643 5643 5636 5640 5648 5646 5645 5643 5641 5638 5636 5633 5630 5627 5624 5621 5618 5616 5614 5613 5611 5609 5607 5604 5602 5600 5598 5596 5594 5592
5619 5615 5611 5609 5611 5622 5639 5647 5650 5633 5636 5647 5644 5641 5637 5635 5635 5637 5640 5639 5638 5636 5634 5632 5628 5625 5622 5620 5617 5613 5610 5608 5608 5606 5604 5602 5599 5597 5595 5592 5591 5588 5586 5585
5611 5608 5605 5603 5605 5616 5637 5637 5634 5633 5639 5639 5638 5636 5633 5631 5632 5632 5631 5630 5630 5628 5626 5624 5620 5617 5615 5612 5609 5605 5603 5602 5601 5598 5596 5593 5591 5589 5588 5584 5582 5580 5578 5576
5606 5609 5607 5608 5615 5624 5629 5631 5634 5633 5631 5632 5631 5630 5628 5626 5624 5624 5623 5622 5621 5620 5618 5616 5613 5610 5607 5604 5601 5598 5596 5594 5592 5589 5586 5584 5582 5580 5578 5575 5573 5571 5569 5567
5604 5606 5603 5604 5613 5619 5622 5625 5627 5627 5627 5627 5626 5624 5622 5619 5617 5616 5614 5613 5612 5611 5610 5608 5605 5602 5599 5596 5594 5591 5589 5586 5583 5581 5578 5576 5573 5571 5569 5567 5565 5563 5561 5559
5601 5599 5596 5598 5607 5611 5616 5618 5620 5621 5620 5620 5619 5618 5616 5614 5611 5609 5606 5605 5604 5602 5601 5600 5597 5594 5591 5588 5586 5584 5581 5578 5575 5572 5570 5567 5565 5562 5559 5558 5556 5555 5554 5552
5593 5596 5594 5599 5605 5602 5607 5613 5613 5613 5612 5612 5611 5609 5609 5607 5605 5603 5600 5598 5596 5594 5592 5591 5589 5586 5583 5580 5578 5576 5574 5571 5567 5564 5561 5559 5557 5554 5551 5548 5546 5545 5544 5544